TimeEDT,TemperatureF,Dew PointF,Humidity,Sea Level PressureIn,VisibilityMPH,Wind Direction,Wind SpeedMPH,Gust SpeedMPH,PrecipitationIn,Events,Conditions,WindDirDegrees,DateUTC
12:51 AM,44.1,42.1,93,29.96,7.0,Calm,Calm,-,N/A,,Clear,0,2012-10-16 04:51:00
1:51 AM,45.0,43.0,93,29.96,4.0,Calm,Calm,-,N/A,,Clear,0,2012-10-16 05:51:00
2:51 AM,42.1,41.0,96,29.98,7.0,Calm,Calm,-,N/A,,Clear,0,2012-10-16 06:51:00
3:49 AM,39.2,39.2,100,29.98,7.0,Calm,Calm,-,N/A,,Scattered Clouds,0,2012-10-16 07:49:00
3:51 AM,39.0,39.0,100,29.99,0.5,Calm,Calm,-,N/A,Fog,Fog,0,2012-10-16 07:51:00
3:54 AM,39.2,39.2,100,29.98,0.2,Calm,Calm,-,N/A,Fog,Fog,0,2012-10-16 07:54:00
4:36 AM,39.2,37.4,93,29.99,0.8,Calm,Calm,-,N/A,,Mist,0,2012-10-16 08:36:00
4:38 AM,39.2,37.4,93,29.99,1.2,Calm,Calm,-,N/A,,Mostly Cloudy,0,2012-10-16 08:38:00
4:47 AM,37.4,37.4,100,29.99,1.0,Calm,Calm,-,N/A,,Mist,0,2012-10-16 08:47:00
4:51 AM,37.9,37.9,100,30.00,1.0,Calm,Calm,-,N/A,,Mist,0,2012-10-16 08:51:00
4:59 AM,37.4,37.4,100,29.99,0.5,Calm,Calm,-,N/A,,Mist,0,2012-10-16 08:59:00
5:06 AM,37.4,37.4,100,29.99,1.0,Calm,Calm,-,N/A,,Mist,0,2012-10-16 09:06:00
5:38 AM,37.4,35.6,93,30.00,1.0,Calm,Calm,-,N/A,,Mist,0,2012-10-16 09:38:00
5:51 AM,36.0,36.0,100,30.00,0.2,East,3.5,-,N/A,Fog,Fog,100,2012-10-16 09:51:00
6:09 AM,35.6,35.6,100,30.00,3.0,Calm,Calm,-,N/A,,Mostly Cloudy,0,2012-10-16 10:09:00
6:17 AM,37.4,35.6,93,30.00,3.0,Calm,Calm,-,N/A,,Scattered Clouds,0,2012-10-16 10:17:00
6:42 AM,35.6,35.6,100,30.01,1.0,Calm,Calm,-,N/A,,Mist,0,2012-10-16 10:42:00
6:51 AM,37.0,36.0,96,30.02,1.0,Calm,Calm,-,N/A,,Mist,0,2012-10-16 10:51:00
6:58 AM,35.6,35.6,100,30.01,1.0,Calm,Calm,-,N/A,,Mist,0,2012-10-16 10:58:00
7:42 AM,35.6,35.6,100,30.02,0.2,Calm,Calm,-,N/A,Fog,Fog,0,2012-10-16 11:42:00
7:51 AM,36.0,36.0,100,30.03,0.2,Calm,Calm,-,N/A,Fog,Fog,0,2012-10-16 11:51:00
8:51 AM,39.0,39.0,100,30.03,0.2,Calm,Calm,-,N/A,Fog,Fog,0,2012-10-16 12:51:00
9:40 AM,44.6,42.8,93,30.03,0.8,Calm,Calm,-,N/A,,Mist,0,2012-10-16 13:40:00
9:47 AM,44.6,42.8,93,30.04,1.0,Calm,Calm,-,N/A,,Mist,0,2012-10-16 13:47:00
9:51 AM,44.6,42.8,93,30.04,1.0,Calm,Calm,-,N/A,,Clear,0,2012-10-16 13:51:00
10:16 AM,48.2,44.6,87,30.03,3.0,Calm,Calm,-,N/A,,Clear,0,2012-10-16 14:16:00
10:51 AM,52.0,43.0,71,30.03,7.0,Variable,3.5,-,N/A,,Clear,0,2012-10-16 14:51:00
11:51 AM,55.0,39.9,57,30.03,10.0,Calm,Calm,-,N/A,,Clear,0,2012-10-16 15:51:00
12:51 PM,57.9,39.9,51,30.01,10.0,Calm,Calm,-,N/A,,Clear,0,2012-10-16 16:51:00
1:51 PM,61.0,39.0,44,29.97,10.0,Calm,Calm,-,N/A,,Clear,0,2012-10-16 17:51:00
2:51 PM,63.0,39.0,41,29.94,10.0,Calm,Calm,-,N/A,,Clear,0,2012-10-16 18:51:00
3:51 PM,64.0,37.9,38,29.92,10.0,Calm,Calm,-,N/A,,Clear,0,2012-10-16 19:51:00
4:51 PM,64.9,37.9,37,29.91,10.0,Calm,Calm,-,N/A,,Clear,0,2012-10-16 20:51:00
5:51 PM,63.0,37.9,40,29.90,10.0,Calm,Calm,-,N/A,,Clear,0,2012-10-16 21:51:00
6:51 PM,59.0,39.0,48,29.89,10.0,Calm,Calm,-,N/A,,Clear,0,2012-10-16 22:51:00
7:51 PM,53.1,39.9,61,29.88,10.0,East,4.6,-,N/A,,Clear,90,2012-10-16 23:51:00
8:51 PM,51.1,41.0,68,29.88,10.0,East,3.5,-,N/A,,Clear,100,2012-10-17 00:51:00
9:51 PM,48.9,41.0,74,29.87,10.0,Calm,Calm,-,N/A,,Clear,0,2012-10-17 01:51:00
10:51 PM,48.9,41.0,74,29.89,10.0,Calm,Calm,-,N/A,,Clear,0,2012-10-17 02:51:00
11:51 PM,45.0,41.0,86,29.88,10.0,ESE,3.5,-,N/A,,Clear,110,2012-10-17 03:51:00